Find PUNCH-WFI-2

NORAD ID: 63181 Int'l Des: 2025-047 Owner: SWRI/GSFC Country: US operational
LEOCIRCULARRETROGRADESSO

リアルタイム位置

3D地球を読み込み中...

PUNCH-WFI-2について

説明を読み込み中...

次回通過

Passes for default location (London). Set your location on the main map for personalized predictions.

高度履歴

Loading altitude history...

軌道要素

1 63181U 25047D 26105.39007789 .00000283 00000-0 50339-4 0 9991
2 63181 97.9570 291.6411 0010018 31.5152 328.6654 14.74282880 58808
Epoch: Apr 15, 2026 • Age: 24 hours

現在のステータス

高度 669.6 km
速度 7.52 km/s
衛星直下点 -58.20°S, 41.89°W
打ち上げ日 Mar 12, 2025
運用期間 1 years
タイプ other

技術仕様

分類 Payload
質量 64.00 kg
乾燥質量 64.00 kg
総質量 64.00 kg
長さ 1.00 m
直径 0.50 m
スパン 1.00 m
形状 Box+panel
製造者 SWRI
バスタイプ Punch
フェーズステータス In Orbit
所有者/国 SWRI/GSFC/US

Most Searched